| time (UTC) | temp C | wind direction | speed KPH | gust KPH | rain 1hr cm | rain 24hr cm | rain mn cm | humidity % | barometer mb |
| 20260906032033 | 23 | 0 | 0.0 | 0.0 | 0.00 | 1.37 | 1.37 | 93 | 1014.4 |
| 20260906031552 | 23 | 0 | 0.0 | 0.0 | 0.00 | 1.37 | 1.37 | 92 | 1014.4 |
| 20260906031029 | 23 | 0 | 0.0 | 0.0 | 0.00 | 1.37 | 1.37 | 91 | 1014.4 |
| 20260906030532 | 24 | 0 | 0.0 | 0.0 | 0.00 | 1.37 | 1.37 | 90 | 1014.4 |
| 20260906030050 | 25 | 0 | 0.0 | 0.0 | 0.00 | 1.37 | 1.37 | 88 | 1014.2 |
| 20260906025534 | 25 | 0 | 0.0 | 0.0 | 0.00 | 1.37 | 1.37 | 88 | 1014.0 |
| 20260906025034 | 25 | 0 | 0.0 | 9.7 | 0.00 | 1.37 | 1.37 | 88 | 1014.0 |
| 20260906024601 | 24 | 0 | 0.0 | 9.7 | 0.00 | 1.37 | 1.37 | 88 | 1013.9 |
| 20260906024032 | 24 | 0 | 0.0 | 0.0 | 0.00 | 1.37 | 1.37 | 90 | 1014.1 |
| 20260906023532 | 24 | 0 | 0.0 | 0.0 | 0.00 | 1.37 | 1.37 | 90 | 1013.9 |
| 20260906023053 | 24 | 0 | 0.0 | 0.0 | 0.00 | 1.37 | 1.37 | 91 | 1013.6 |
| 20260906022532 | 24 | 0 | 0.0 | 0.0 | 0.00 | 1.37 | 1.37 | 90 | 1013.6 |
| 20260906022033 | 24 | 0 | 0.0 | 0.0 | 0.00 | 1.37 | 1.37 | 90 | 1013.5 |
| 20260906021551 | 24 | 0 | 0.0 | 0.0 | 0.00 | 1.37 | 1.37 | 89 | 1013.5 |
| 20260906021032 | 25 | 0 | 0.0 | 0.0 | 0.00 | 1.37 | 1.37 | 88 | 1013.4 |
| 20260906020533 | 24 | 0 | 0.0 | 4.8 | 0.00 | 1.37 | 1.37 | 88 | 1013.3 |
| 20260906020051 | 25 | 0 | 0.0 | 4.8 | 0.00 | 1.37 | 1.37 | 88 | 1013.4 |
| 20260906015532 | 24 | 0 | 0.0 | 4.8 | 0.00 | 1.37 | 1.37 | 89 | 1013.4 |
| 20260906015033 | 24 | 0 | 0.0 | 4.8 | 0.00 | 1.37 | 1.37 | 90 | 1013.4 |
| 20260906014600 | 24 | 0 | 0.0 | 6.4 | 0.00 | 1.37 | 1.37 | 89 | 1013.6 |
| 20260906014033 | 24 | 0 | 0.0 | 6.4 | 0.00 | 1.37 | 1.37 | 89 | 1013.6 |
| 20260906013530 | 23 | 259 | 0.0 | 6.4 | 0.00 | 1.37 | 1.37 | 91 | 1013.4 |
| 20260906013051 | 24 | 0 | 0.0 | 0.0 | 0.00 | 1.37 | 1.37 | 90 | 1013.4 |
| 20260906012531 | 24 | 0 | 0.0 | 6.4 | 0.00 | 1.37 | 1.37 | 91 | 1013.6 |
| 20260906012029 | 24 | 0 | 0.0 | 8.0 | 0.00 | 1.37 | 1.37 | 90 | 1013.5 |
| 20260906011549 | 24 | 244 | 0.0 | 8.0 | 0.00 | 1.37 | 1.37 | 89 | 1013.5 |
| 20260906011032 | 23 | 0 | 0.0 | 8.0 | 0.00 | 1.37 | 1.37 | 91 | 1013.3 |
| 20260906010532 | 23 | 0 | 0.0 | 0.0 | 0.00 | 1.37 | 1.37 | 93 | 1013.3 |
| 20260906010054 | 23 | 0 | 0.0 | 0.0 | 0.00 | 1.37 | 1.37 | 92 | 1013.3 |
| 20260906005532 | 23 | 0 | 0.0 | 0.0 | 0.00 | 1.37 | 1.37 | 92 | 1013.4 |
| 20260906005033 | 23 | 0 | 0.0 | 0.0 | 0.00 | 1.37 | 1.37 | 92 | 1013.4 |
| 20260906004554 | 24 | 0 | 0.0 | 0.0 | 0.00 | 1.37 | 1.37 | 91 | 1013.2 |
| 20260906004033 | 24 | 0 | 0.0 | 0.0 | 0.00 | 1.37 | 1.37 | 91 | 1013.2 |
| 20260906003530 | 24 | 0 | 0.0 | 0.0 | 0.00 | 1.37 | 1.37 | 91 | 1013.3 |
| 20260906003109 | 24 | 0 | 0.0 | 0.0 | 0.00 | 1.37 | 1.37 | 91 | 1013.2 |
| 20260906002528 | 24 | 0 | 0.0 | 0.0 | 0.00 | 1.37 | 1.37 | 90 | 1013.2 |
| 20260906002029 | 24 | 0 | 0.0 | 0.0 | 0.00 | 1.37 | 1.37 | 90 | 1013.0 |
| 20260906001549 | 24 | 0 | 0.0 | 0.0 | 0.00 | 1.37 | 1.37 | 90 | 1013.0 |
| 20260906001034 | 24 | 0 | 0.0 | 0.0 | 0.00 | 1.37 | 1.37 | 90 | 1012.9 |
| 20260906000532 | 25 | 0 | 0.0 | 0.0 | 0.00 | 1.37 | 1.37 | 91 | 1012.8 |
| 20260906000059 | 25 | 0 | 0.0 | 0.0 | 0.00 | 1.37 | 1.37 | 91 | 1012.9 |
| 20260905235532 | 25 | 0 | 0.0 | 0.0 | 0.00 | 1.37 | 1.37 | 90 | 1012.7 |
| 20260905235032 | 25 | 0 | 0.0 | 0.0 | 0.00 | 1.37 | 1.37 | 90 | 1012.7 |
| 20260905234606 | 25 | 0 | 0.0 | 0.0 | 0.00 | 1.37 | 1.37 | 88 | 1012.6 |
| 20260905234033 | 25 | 0 | 0.0 | 0.0 | 0.00 | 1.37 | 1.37 | 90 | 1012.6 |
| 20260905233529 | 25 | 0 | 0.0 | 0.0 | 0.00 | 1.37 | 1.37 | 89 | 1012.5 |
| 20260905233050 | 25 | 0 | 0.0 | 0.0 | 0.00 | 1.37 | 1.37 | 92 | 1012.5 |
| 20260905232532 | 25 | 0 | 0.0 | 0.0 | 0.00 | 1.37 | 1.37 | 92 | 1012.4 |
| 20260905232033 | 25 | 0 | 0.0 | 4.8 | 0.00 | 1.37 | 1.37 | 92 | 1012.5 |
| 20260905231549 | 25 | 0 | 0.0 | 4.8 | 0.00 | 1.37 | 1.37 | 92 | 1012.5 |
| 20260905231032 | 25 | 0 | 0.0 | 0.0 | 0.00 | 1.37 | 1.37 | 91 | 1012.4 |
| 20260905230532 | 25 | 0 | 0.0 | 0.0 | 0.00 | 1.37 | 1.37 | 90 | 1012.4 |
| 20260905230052 | 25 | 0 | 0.0 | 0.0 | 0.00 | 1.37 | 1.37 | 90 | 1012.3 |
| 20260905225532 | 25 | 0 | 0.0 | 0.0 | 0.00 | 1.37 | 1.37 | 89 | 1012.3 |
| 20260905225031 | 26 | 0 | 0.0 | 0.0 | 0.00 | 1.37 | 1.37 | 87 | 1012.4 |
| 20260905224550 | 26 | 0 | 0.0 | 0.0 | 0.00 | 1.37 | 1.37 | 87 | 1012.4 |
| 20260905224033 | 26 | 0 | 0.0 | 0.0 | 0.00 | 1.37 | 1.37 | 88 | 1012.5 |
| 20260905223532 | 26 | 0 | 0.0 | 0.0 | 0.00 | 1.37 | 1.37 | 86 | 1012.6 |
| 20260905223049 | 26 | 0 | 0.0 | 0.0 | 0.00 | 1.37 | 1.37 | 84 | 1012.5 |
| 20260905222533 | 26 | 0 | 0.0 | 0.0 | 0.00 | 1.37 | 1.37 | 85 | 1012.4 |
| 20260905222032 | 26 | 0 | 0.0 | 0.0 | 0.00 | 1.37 | 1.37 | 84 | 1012.5 |
| 20260905221555 | 26 | 0 | 0.0 | 0.0 | 0.00 | 1.37 | 1.37 | 87 | 1012.5 |
| 20260905221029 | 26 | 0 | 0.0 | 1.6 | 0.00 | 1.37 | 1.37 | 85 | 1012.5 |
| 20260905220530 | 26 | 0 | 0.0 | 6.4 | 0.00 | 1.37 | 1.37 | 83 | 1012.4 |
| 20260905220050 | 26 | 0 | 0.0 | 6.4 | 0.00 | 1.37 | 1.37 | 84 | 1012.5 |
| 20260905215532 | 26 | 0 | 0.0 | 0.0 | 0.00 | 1.37 | 1.37 | 82 | 1012.7 |
| 20260905215036 | 25 | 0 | 0.0 | 0.0 | 0.00 | 1.37 | 1.37 | 84 | 1012.7 |
| 20260905214557 | 25 | 0 | 0.0 | 0.0 | 0.00 | 1.37 | 1.37 | 86 | 1012.8 |
| 20260905214032 | 25 | 0 | 0.0 | 0.0 | 0.00 | 1.37 | 1.37 | 88 | 1012.9 |
| 20260905213531 | 25 | 0 | 0.0 | 4.8 | 0.00 | 1.37 | 1.37 | 89 | 1013.0 |
| 20260905213057 | 25 | 0 | 0.0 | 4.8 | 0.00 | 1.37 | 1.37 | 89 | 1013.1 |
| 20260905212531 | 24 | 47 | 0.0 | 4.8 | 0.00 | 1.37 | 1.37 | 87 | 1013.1 |
| 20260905212028 | 24 | 0 | 0.0 | 0.0 | 0.00 | 1.37 | 1.37 | 92 | 1013.1 |
| 20260905211551 | 25 | 0 | 0.0 | 0.0 | 0.00 | 1.37 | 1.37 | 90 | 1013.2 |
| 20260905211033 | 25 | 0 | 0.0 | 3.2 | 0.00 | 1.37 | 1.37 | 88 | 1013.3 |
| 20260905210534 | 25 | 0 | 0.0 | 3.2 | 0.00 | 1.37 | 1.37 | 86 | 1013.2 |
| 20260905210059 | 25 | 0 | 0.0 | 3.2 | 0.00 | 1.37 | 1.37 | 90 | 1013.3 |
| 20260905205532 | 25 | 0 | 0.0 | 3.2 | 0.00 | 1.37 | 1.37 | 90 | 1013.1 |
| 20260905205032 | 25 | 0 | 0.0 | 3.2 | 0.00 | 1.37 | 1.37 | 88 | 1013.2 |
| 20260905204601 | 25 | 0 | 0.0 | 9.7 | 0.00 | 1.37 | 1.37 | 89 | 1013.5 |
| 20260905204032 | 25 | 0 | 0.0 | 11.3 | 0.00 | 1.37 | 1.37 | 88 | 1013.4 |
| 20260905203534 | 25 | 0 | 1.6 | 11.3 | 0.00 | 1.37 | 1.37 | 86 | 1013.5 |
| 20260905203057 | 25 | 0 | 1.6 | 6.4 | 0.00 | 1.37 | 1.37 | 82 | 1013.5 |
| 20260905202531 | 25 | 251 | 0.0 | 8.0 | 0.00 | 1.37 | 1.37 | 88 | 1013.4 |
| 20260905202029 | 25 | 0 | 0.0 | 8.0 | 0.00 | 1.37 | 1.37 | 88 | 1013.5 |
| 20260905201551 | 25 | 0 | 0.0 | 12.9 | 0.00 | 1.37 | 1.37 | 88 | 1013.7 |
| 20260905201031 | 25 | 0 | 0.0 | 12.9 | 0.00 | 1.37 | 1.37 | 90 | 1013.8 |
| 20260905200533 | 24 | 267 | 1.6 | 12.9 | 0.00 | 1.37 | 1.37 | 91 | 1013.9 |
| 20260905200056 | 24 | 0 | 1.6 | 12.9 | 0.03 | 1.37 | 1.37 | 94 | 1014.0 |
| 20260905195532 | 23 | 203 | 0.0 | 12.9 | 0.05 | 1.37 | 1.37 | 96 | 1014.0 |
| 20260905195032 | 23 | 0 | 0.0 | 0.0 | 0.05 | 1.37 | 1.37 | 97 | 1013.7 |
| 20260905194558 | 23 | 0 | 0.0 | 9.7 | 0.23 | 1.37 | 1.37 | 98 | 1013.5 |
| 20260905194036 | 23 | 0 | 1.6 | 9.7 | 0.71 | 1.37 | 1.37 | 98 | 1013.5 |
| 20260905193531 | 22 | 0 | 0.0 | 0.0 | 0.99 | 1.37 | 1.37 | 98 | 1013.7 |
| 20260905193107 | 22 | 0 | 0.0 | 0.0 | 1.27 | 1.37 | 1.37 | 98 | 1013.8 |
| 20260905192532 | 22 | 0 | 0.0 | 0.0 | 1.32 | 1.37 | 1.37 | 97 | 1014.0 |
| 20260905192031 | 22 | 0 | 0.0 | 0.0 | 1.37 | 1.37 | 1.37 | 97 | 1014.1 |
| 20260905191557 | 21 | 0 | 0.0 | 0.0 | 1.37 | 1.37 | 1.37 | 97 | 1014.2 |
| 20260905191031 | 21 | 0 | 0.0 | 0.0 | 1.37 | 1.37 | 1.37 | 97 | 1014.2 |
| 20260905190529 | 20 | 0 | 0.0 | 0.0 | 1.37 | 1.37 | 1.37 | 96 | 1013.9 |
| 20260905190050 | 20 | 0 | 0.0 | 3.2 | 1.32 | 1.32 | 1.32 | 95 | 1014.1 |
| 20260905185530 | 20 | 0 | 0.0 | 8.0 | 1.32 | 1.32 | 1.32 | 94 | 1015.3 |
| 20260905185034 | 21 | 0 | 0.0 | 17.7 | 1.32 | 1.32 | 1.32 | 92 | 1016.2 |
| 20260905184557 | 21 | 0 | 4.8 | 46.7 | 1.12 | 1.12 | 1.12 | 90 | 1016.8 |
| 20260905184031 | 22 | 204 | 6.4 | 46.7 | 0.64 | 0.64 | 0.64 | 88 | 1017.6 |
| 20260905183531 | 23 | 78 | 9.7 | 46.7 | 0.36 | 0.36 | 0.36 | 82 | 1016.5 |
| 20260905183056 | 25 | 195 | 4.8 | 22.5 | 0.08 | 0.08 | 0.08 | 75 | 1015.3 |
| 20260905182529 | 27 | 26 | 8.0 | 22.5 | 0.03 | 0.03 | 0.03 | 68 | 1014.7 |
| 20260905182032 | 30 | 57 | 1.6 | 11.3 | 0.00 | 0.00 | 0.00 | 72 | 1014.2 |
| 20260905181549 | 30 | 0 | 0.0 | 0.0 | 0.00 | 0.00 | 0.00 | 79 | 1013.8 |
| 20260905181031 | 31 | 0 | 0.0 | 0.0 | 0.00 | 0.00 | 0.00 | 80 | 1013.4 |
| 20260905180531 | 31 | 0 | 0.0 | 0.0 | 0.00 | 0.00 | 0.00 | 77 | 1013.4 |
| 20260905180059 | 31 | 0 | 0.0 | 0.0 | 0.00 | 0.00 | 0.00 | 77 | 1013.8 |
| 20260905175530 | 32 | 0 | 0.0 | 0.0 | 0.00 | 0.00 | 0.00 | 76 | 1013.8 |
| 20260905175031 | 32 | 0 | 0.0 | 0.0 | 0.00 | 0.00 | 0.00 | 75 | 1013.9 |
| 20260905174551 | 32 | 0 | 0.0 | 0.0 | 0.00 | 0.00 | 0.00 | 73 | 1013.9 |
| 20260905174029 | 33 | 0 | 0.0 | 0.0 | 0.00 | 0.00 | 0.00 | 73 | 1013.9 |
| 20260905173530 | 33 | 0 | 0.0 | 6.4 | 0.00 | 0.00 | 0.00 | 73 | 1014.0 |
| 20260905173051 | 33 | 0 | 0.0 | 6.4 | 0.00 | 0.00 | 0.00 | 70 | 1014.1 |
| 20260905172532 | 34 | 0 | 1.6 | 6.4 | 0.00 | 0.00 | 0.00 | 63 | 1014.0 |
| 20260905172031 | 34 | 0 | 0.0 | 0.0 | 0.00 | 0.00 | 0.00 | 67 | 1014.1 |
| 20260905171547 | 33 | 0 | 0.0 | 0.0 | 0.00 | 0.00 | 0.00 | 66 | 1014.2 |
| 20260905171030 | 33 | 0 | 0.0 | 0.0 | 0.00 | 0.00 | 0.00 | 68 | 1014.1 |
| 20260905170532 | 33 | 0 | 0.0 | 0.0 | 0.00 | 0.00 | 0.00 | 69 | 1014.2 |
| 20260905170056 | 33 | 0 | 0.0 | 0.0 | 0.00 | 0.00 | 0.00 | 71 | 1014.2 |
| 20260905165537 | 33 | 0 | 0.0 | 0.0 | 0.00 | 0.00 | 0.00 | 69 | 1014.3 |
| 20260905165038 | 33 | 0 | 0.0 | 4.8 | 0.00 | 0.00 | 0.00 | 67 | 1014.4 |
| 20260905164550 | 33 | 0 | 0.0 | 4.8 | 0.00 | 0.00 | 0.00 | 68 | 1014.4 |
| 20260905164033 | 33 | 0 | 1.6 | 4.8 | 0.00 | 0.00 | 0.00 | 68 | 1014.5 |
| 20260905163534 | 33 | 0 | 0.0 | 4.8 | 0.00 | 0.00 | 0.00 | 68 | 1014.6 |
| 20260905163057 | 33 | 0 | 0.0 | 4.8 | 0.00 | 0.00 | 0.00 | 69 | 1014.7 |
| 20260905162531 | 33 | 0 | 0.0 | 3.2 | 0.00 | 0.00 | 0.00 | 67 | 1014.9 |
| 20260905162033 | 33 | 0 | 0.0 | 4.8 | 0.00 | 0.00 | 0.00 | 66 | 1015.0 |
| 20260905161554 | 33 | 0 | 0.0 | 4.8 | 0.00 | 0.00 | 0.00 | 70 | 1015.0 |
| 20260905161035 | 33 | 0 | 0.0 | 0.0 | 0.00 | 0.00 | 0.00 | 68 | 1015.1 |
| 20260905160533 | 32 | 0 | 0.0 | 0.0 | 0.00 | 0.00 | 0.00 | 69 | 1015.0 |
| 20260905160052 | 32 | 0 | 0.0 | 0.0 | 0.00 | 0.00 | 0.00 | 67 | 1015.1 |
| 20260905155537 | 32 | 0 | 0.0 | 0.0 | 0.00 | 0.00 | 0.00 | 69 | 1015.1 |
| 20260905155033 | 32 | 0 | 0.0 | 0.0 | 0.00 | 0.00 | 0.00 | 74 | 1015.1 |
| 20260905154602 | 32 | 0 | 0.0 | 0.0 | 0.00 | 0.00 | 0.00 | 69 | 1015.1 |
| 20260905154033 | 32 | 0 | 0.0 | 0.0 | 0.00 | 0.00 | 0.00 | 73 | 1015.2 |
| 20260905153536 | 32 | 0 | 0.0 | 0.0 | 0.00 | 0.00 | 0.00 | 69 | 1015.2 |
| 20260905153056 | 31 | 0 | 0.0 | 0.0 | 0.00 | 0.00 | 0.00 | 72 | 1015.2 |
| 20260905152532 | 31 | 0 | 0.0 | 0.0 | 0.00 | 0.00 | 0.00 | 72 | 1015.2 |
| 20260905152032 | 31 | 0 | 0.0 | 4.8 | 0.00 | 0.00 | 0.00 | 74 | 1015.2 |
| 20260905151555 | 31 | 0 | 0.0 | 9.7 | 0.00 | 0.00 | 0.00 | 73 | 1015.2 |
| 20260905151033 | 31 | 0 | 0.0 | 9.7 | 0.00 | 0.00 | 0.00 | 75 | 1015.2 |
| 20260905150536 | 31 | 0 | 0.0 | 6.4 | 0.00 | 0.00 | 0.00 | 74 | 1015.1 |
| 20260905150056 | 30 | 0 | 0.0 | 11.3 | 0.00 | 0.00 | 0.00 | 74 | 1015.2 |
| 20260905145534 | 30 | 247 | 1.6 | 11.3 | 0.00 | 0.00 | 0.00 | 75 | 1015.2 |
| 20260905145031 | 30 | 0 | 1.6 | 11.3 | 0.00 | 0.00 | 0.00 | 75 | 1015.2 |
| 20260905144552 | 30 | 0 | 0.0 | 9.7 | 0.00 | 0.00 | 0.00 | 76 | 1015.3 |
| 20260905144032 | 30 | 0 | 1.6 | 11.3 | 0.00 | 0.00 | 0.00 | 76 | 1015.2 |
| 20260905143532 | 30 | 0 | 3.2 | 11.3 | 0.00 | 0.00 | 0.00 | 75 | 1015.3 |
| 20260905143058 | 30 | 0 | 0.0 | 8.0 | 0.00 | 0.00 | 0.00 | 78 | 1015.3 |
| 20260905142532 | 29 | 0 | 0.0 | 8.0 | 0.00 | 0.00 | 0.00 | 77 | 1015.3 |
| 20260905142035 | 29 | 0 | 0.0 | 8.0 | 0.00 | 0.00 | 0.00 | 77 | 1015.3 |
| 20260905141552 | 28 | 0 | 0.0 | 6.4 | 0.00 | 0.00 | 0.00 | 78 | 1015.3 |
| 20260905141035 | 28 | 0 | 0.0 | 6.4 | 0.00 | 0.00 | 0.00 | 78 | 1015.3 |
| 20260905140534 | 28 | 0 | 0.0 | 8.0 | 0.00 | 0.00 | 0.00 | 79 | 1015.3 |
| 20260905140049 | 28 | 0 | 0.0 | 9.7 | 0.00 | 0.00 | 0.00 | 80 | 1015.3 |
| 20260905135558 | 28 | 0 | 3.2 | 9.7 | 0.00 | 0.00 | 0.00 | 79 | 1015.4 |
| 20260905135031 | 28 | 0 | 1.6 | 9.7 | 0.00 | 0.00 | 0.00 | 79 | 1015.4 |
| 20260905134600 | 27 | 233 | 0.0 | 8.0 | 0.00 | 0.00 | 0.00 | 81 | 1015.4 |
| 20260905134028 | 27 | 0 | 0.0 | 8.0 | 0.00 | 0.00 | 0.00 | 81 | 1015.5 |
| 20260905133534 | 27 | 0 | 1.6 | 11.3 | 0.00 | 0.00 | 0.00 | 81 | 1015.6 |
| 20260905133052 | 27 | 0 | 0.0 | 11.3 | 0.00 | 0.00 | 0.00 | 83 | 1015.7 |
| 20260905132532 | 27 | 207 | 1.6 | 11.3 | 0.00 | 0.00 | 0.00 | 82 | 1015.6 |
| 20260905132038 | 27 | 0 | 0.0 | 11.3 | 0.00 | 0.00 | 0.00 | 82 | 1015.7 |
| 20260905131552 | 26 | 261 | 0.0 | 9.7 | 0.00 | 0.00 | 0.00 | 82 | 1015.7 |
| 20260905131033 | 26 | 275 | 1.6 | 9.7 | 0.00 | 0.00 | 0.00 | 82 | 1015.8 |
| 20260905130531 | 26 | 0 | 0.0 | 11.3 | 0.00 | 0.00 | 0.00 | 83 | 1015.7 |
| 20260905130057 | 26 | 0 | 3.2 | 11.3 | 0.00 | 0.00 | 0.00 | 83 | 1015.7 |
| 20260905125531 | 26 | 340 | 0.0 | 12.9 | 0.00 | 0.00 | 0.00 | 83 | 1015.7 |
| 20260905125031 | 26 | 250 | 3.2 | 14.5 | 0.00 | 0.00 | 0.00 | 83 | 1015.7 |
| 20260905124555 | 26 | 284 | 4.8 | 16.1 | 0.00 | 0.00 | 0.00 | 83 | 1015.6 |
| 20260905124037 | 26 | 265 | 3.2 | 16.1 | 0.00 | 0.00 | 0.00 | 84 | 1015.7 |
| 20260905123533 | 26 | 182 | 4.8 | 16.1 | 0.00 | 0.00 | 0.00 | 83 | 1015.6 |
| 20260905123049 | 26 | 311 | 3.2 | 14.5 | 0.00 | 0.00 | 0.00 | 83 | 1015.4 |
| 20260905122528 | 26 | 285 | 0.0 | 12.9 | 0.00 | 0.00 | 0.00 | 83 | 1015.4 |
| 20260905122029 | 26 | 284 | 3.2 | 12.9 | 0.00 | 0.00 | 0.00 | 83 | 1015.5 |
| 20260905121547 | 26 | 204 | 1.6 | 11.3 | 0.00 | 0.00 | 0.00 | 83 | 1015.4 |
| 20260905121032 | 25 | 0 | 1.6 | 11.3 | 0.00 | 0.00 | 0.00 | 83 | 1015.4 |
| 20260905120531 | 25 | 287 | 4.8 | 12.9 | 0.00 | 0.00 | 0.00 | 83 | 1015.3 |
| 20260905120056 | 25 | 201 | 1.6 | 12.9 | 0.00 | 0.00 | 0.00 | 84 | 1015.3 |
| 20260905115536 | 25 | 286 | 1.6 | 12.9 | 0.00 | 0.00 | 0.00 | 84 | 1015.2 |
| 20260905115032 | 25 | 0 | 1.6 | 8.0 | 0.00 | 0.00 | 0.00 | 85 | 1015.1 |
| 20260905114551 | 25 | 217 | 0.0 | 6.4 | 0.00 | 0.00 | 0.00 | 85 | 1015.2 |
| 20260905114031 | 25 | 215 | 0.0 | 1.6 | 0.00 | 0.00 | 0.00 | 86 | 1015.1 |
| 20260905113533 | 25 | 0 | 0.0 | 0.0 | 0.00 | 0.00 | 0.00 | 87 | 1014.9 |
| 20260905113050 | 25 | 0 | 0.0 | 0.0 | 0.00 | 0.00 | 0.00 | 86 | 1015.0 |
| 20260905112529 | 25 | 0 | 0.0 | 0.0 | 0.00 | 0.00 | 0.00 | 85 | 1014.8 |
| 20260905112031 | 25 | 0 | 0.0 | 0.0 | 0.00 | 0.00 | 0.00 | 84 | 1014.8 |
| 20260905111637 | 25 | 0 | 0.0 | 0.0 | 0.00 | 0.00 | 0.00 | 84 | 1014.6 |
| 20260905111034 | 25 | 0 | 0.0 | 0.0 | 0.00 | 0.00 | 0.00 | 84 | 1014.5 |
| 20260905110528 | 25 | 0 | 0.0 | 0.0 | 0.00 | 0.00 | 0.00 | 85 | 1014.5 |
| 20260905110050 | 25 | 0 | 0.0 | 0.0 | 0.00 | 0.00 | 0.00 | 85 | 1014.5 |
| 20260905105532 | 25 | 0 | 0.0 | 0.0 | 0.00 | 0.00 | 0.00 | 84 | 1014.3 |
| 20260905105028 | 25 | 0 | 0.0 | 0.0 | 0.00 | 0.00 | 0.00 | 83 | 1014.3 |
| 20260905104549 | 25 | 0 | 0.0 | 0.0 | 0.00 | 0.00 | 0.00 | 83 | 1014.1 |
| 20260905104031 | 26 | 0 | 0.0 | 0.0 | 0.00 | 0.00 | 0.00 | 83 | 1014.1 |
| 20260905103532 | 26 | 0 | 0.0 | 0.0 | 0.00 | 0.00 | 0.00 | 83 | 1014.1 |
| 20260905103050 | 26 | 0 | 0.0 | 8.0 | 0.00 | 0.00 | 0.00 | 83 | 1014.2 |
| 20260905102532 | 26 | 0 | 0.0 | 8.0 | 0.00 | 0.00 | 0.00 | 84 | 1014.2 |
| 20260905102030 | 26 | 287 | 3.2 | 8.0 | 0.00 | 0.00 | 0.00 | 84 | 1014.1 |
| 20260905101556 | 26 | 158 | 0.0 | 16.1 | 0.00 | 0.00 | 0.00 | 84 | 1014.2 |
| 20260905101029 | 26 | 0 | 1.6 | 16.1 | 0.00 | 0.00 | 0.00 | 84 | 1014.1 |
| 20260905100532 | 25 | 302 | 0.0 | 12.9 | 0.00 | 0.00 | 0.00 | 84 | 1014.1 |
| 20260905100108 | 25 | 0 | 0.0 | 8.0 | 0.00 | 0.00 | 0.00 | 84 | 1014.1 |
| 20260905095528 | 25 | 0 | 1.6 | 11.3 | 0.00 | 0.00 | 0.00 | 85 | 1014.0 |
| 20260905095031 | 25 | 244 | 3.2 | 11.3 | 0.00 | 0.00 | 0.00 | 85 | 1014.0 |
| 20260905094559 | 25 | 0 | 0.0 | 11.3 | 0.00 | 0.00 | 0.00 | 85 | 1014.1 |
| 20260905094034 | 25 | 0 | 1.6 | 11.3 | 0.00 | 0.00 | 0.00 | 85 | 1014.1 |
| 20260905093529 | 25 | 0 | 1.6 | 8.0 | 0.00 | 0.00 | 0.00 | 85 | 1014.1 |
| 20260905093100 | 25 | 0 | 0.0 | 4.8 | 0.00 | 0.00 | 0.00 | 85 | 1014.1 |
| 20260905092528 | 25 | 0 | 0.0 | 8.0 | 0.00 | 0.00 | 0.00 | 85 | 1014.2 |
| 20260905092030 | 25 | 0 | 0.0 | 9.7 | 0.00 | 0.00 | 0.00 | 85 | 1014.2 |
| 20260905091600 | 25 | 0 | 0.0 | 11.3 | 0.00 | 0.00 | 0.00 | 85 | 1014.1 |
| 20260905091030 | 26 | 0 | 1.6 | 11.3 | 0.00 | 0.00 | 0.00 | 85 | 1014.2 |
| 20260905090529 | 26 | 0 | 0.0 | 6.4 | 0.00 | 0.00 | 0.00 | 85 | 1014.1 |
| 20260905090049 | 26 | 226 | 1.6 | 9.7 | 0.00 | 0.00 | 0.00 | 85 | 1014.1 |
| 20260905085533 | 26 | 0 | 3.2 | 9.7 | 0.00 | 0.00 | 0.00 | 85 | 1014.2 |
| 20260905085034 | 26 | 255 | 3.2 | 11.3 | 0.00 | 0.00 | 0.00 | 84 | 1014.1 |
| 20260905084558 | 26 | 0 | 1.6 | 11.3 | 0.00 | 0.00 | 0.00 | 84 | 1014.3 |
| 20260905084031 | 26 | 283 | 3.2 | 12.9 | 0.00 | 0.00 | 0.00 | 84 | 1014.3 |
| 20260905083530 | 26 | 294 | 0.0 | 12.9 | 0.00 | 0.00 | 0.00 | 84 | 1014.4 |
| 20260905083053 | 26 | 244 | 1.6 | 12.9 | 0.00 | 0.00 | 0.00 | 84 | 1014.5 |
| 20260905082531 | 26 | 227 | 0.0 | 8.0 | 0.00 | 0.00 | 0.00 | 84 | 1014.5 |
| 20260905082032 | 26 | 29 | 0.0 | 8.0 | 0.00 | 0.00 | 0.00 | 85 | 1014.5 |
| 20260905081555 | 25 | 311 | 0.0 | 8.0 | 0.00 | 0.00 | 0.00 | 85 | 1014.6 |
| 20260905081029 | 25 | 0 | 0.0 | 8.0 | 0.00 | 0.00 | 0.00 | 86 | 1014.6 |
| 20260905080530 | 25 | 0 | 0.0 | 6.4 | 0.00 | 0.00 | 0.00 | 87 | 1014.7 |
| 20260905080056 | 24 | 0 | 0.0 | 3.2 | 0.00 | 0.00 | 0.00 | 89 | 1014.9 |
| 20260905075533 | 23 | 0 | 0.0 | 3.2 | 0.00 | 0.00 | 0.00 | 91 | 1014.9 |
| 20260905075030 | 23 | 0 | 0.0 | 1.6 | 0.00 | 0.00 | 0.00 | 93 | 1014.8 |
| 20260905074548 | 23 | 0 | 0.0 | 0.0 | 0.00 | 0.00 | 0.00 | 93 | 1014.8 |
| 20260905074033 | 23 | 0 | 0.0 | 0.0 | 0.00 | 0.00 | 0.00 | 94 | 1014.8 |
| 20260905073533 | 23 | 0 | 0.0 | 0.0 | 0.00 | 0.00 | 0.00 | 94 | 1014.9 |
| 20260905073052 | 23 | 0 | 0.0 | 0.0 | 0.00 | 0.00 | 0.00 | 93 | 1015.0 |
| 20260905072532 | 23 | 0 | 0.0 | 0.0 | 0.00 | 0.00 | 0.00 | 93 | 1015.0 |
| 20260905072029 | 23 | 0 | 0.0 | 0.0 | 0.00 | 0.00 | 0.00 | 93 | 1015.1 |
| 20260905071555 | 23 | 0 | 0.0 | 0.0 | 0.00 | 0.00 | 0.00 | 93 | 1015.0 |
| 20260905071033 | 23 | 0 | 0.0 | 0.0 | 0.00 | 0.00 | 0.00 | 93 | 1015.0 |
| 20260905070531 | 23 | 0 | 0.0 | 0.0 | 0.00 | 0.00 | 0.00 | 93 | 1015.0 |
| 20260905070049 | 23 | 0 | 0.0 | 0.0 | 0.00 | 0.00 | 0.00 | 93 | 1015.0 |
| 20260905065534 | 23 | 0 | 0.0 | 4.8 | 0.00 | 0.00 | 0.00 | 94 | 1015.1 |
| 20260905065033 | 23 | 0 | 0.0 | 4.8 | 0.00 | 0.00 | 0.00 | 94 | 1015.1 |
| 20260905064600 | 23 | 0 | 0.0 | 0.0 | 0.00 | 0.00 | 0.00 | 94 | 1015.1 |
| 20260905064033 | 23 | 0 | 0.0 | 1.6 | 0.00 | 0.00 | 0.00 | 94 | 1015.3 |
| 20260905063530 | 23 | 0 | 0.0 | 1.6 | 0.00 | 0.00 | 0.00 | 94 | 1015.4 |
| 20260905063100 | 23 | 0 | 0.0 | 4.8 | 0.00 | 0.00 | 0.00 | 95 | 1015.4 |
| 20260905062532 | 23 | 0 | 0.0 | 4.8 | 0.00 | 0.00 | 0.00 | 95 | 1015.5 |
| 20260905062032 | 22 | 0 | 0.0 | 4.8 | 0.00 | 0.00 | 0.00 | 96 | 1015.5 |
| 20260905061609 | 22 | 0 | 0.0 | 0.0 | 0.00 | 0.00 | 0.00 | 96 | 1015.6 |
| 20260905061035 | 22 | 0 | 0.0 | 0.0 | 0.00 | 0.00 | 0.00 | 96 | 1015.5 |
| 20260905060532 | 22 | 0 | 0.0 | 0.0 | 0.00 | 0.00 | 0.00 | 96 | 1015.6 |
| 20260905060049 | 22 | 0 | 0.0 | 0.0 | 0.00 | 0.00 | 0.00 | 96 | 1015.6 |
| 20260905055533 | 22 | 0 | 0.0 | 0.0 | 0.00 | 0.00 | 0.00 | 96 | 1015.8 |
| 20260905055037 | 22 | 0 | 0.0 | 0.0 | 0.00 | 0.00 | 0.00 | 96 | 1015.8 |
| 20260905054556 | 22 | 0 | 0.0 | 0.0 | 0.00 | 0.00 | 0.00 | 96 | 1016.0 |
| 20260905054033 | 22 | 0 | 0.0 | 0.0 | 0.00 | 0.00 | 0.00 | 95 | 1016.0 |
| 20260905053533 | 23 | 0 | 0.0 | 0.0 | 0.00 | 0.00 | 0.00 | 95 | 1016.0 |
| 20260905053058 | 23 | 0 | 0.0 | 0.0 | 0.00 | 0.00 | 0.00 | 95 | 1015.9 |
| 20260905052532 | 23 | 0 | 0.0 | 0.0 | 0.00 | 0.00 | 0.00 | 95 | 1015.9 |
| 20260905052033 | 23 | 0 | 0.0 | 0.0 | 0.00 | 0.00 | 0.00 | 95 | 1015.9 |
| 20260905051551 | 23 | 0 | 0.0 | 0.0 | 0.00 | 0.00 | 0.00 | 95 | 1016.1 |
| 20260905051032 | 23 | 0 | 0.0 | 0.0 | 0.00 | 0.00 | 0.00 | 95 | 1016.0 |
| 20260905050531 | 23 | 0 | 0.0 | 0.0 | 0.00 | 0.00 | 0.00 | 95 | 1016.0 |
| 20260905050049 | 23 | 0 | 0.0 | 0.0 | 0.00 | 0.00 | 0.00 | 95 | 1015.9 |
| 20260905045533 | 23 | 0 | 0.0 | 0.0 | 0.00 | 0.00 | 0.00 | 95 | 1015.8 |
| 20260905045033 | 23 | 0 | 0.0 | 0.0 | 0.00 | 0.00 | 0.00 | 95 | 1015.8 |
| 20260905044604 | 23 | 0 | 0.0 | 0.0 | 0.00 | 0.00 | 0.00 | 95 | 1015.8 |
| 20260905044033 | 23 | 0 | 0.0 | 0.0 | 0.00 | 0.00 | 0.00 | 95 | 1015.9 |
| 20260905043533 | 23 | 0 | 0.0 | 0.0 | 0.00 | 0.00 | 0.00 | 95 | 1015.8 |
| 20260905043052 | 23 | 0 | 0.0 | 0.0 | 0.00 | 0.00 | 0.00 | 95 | 1015.7 |
| 20260905042535 | 23 | 0 | 0.0 | 0.0 | 0.00 | 0.00 | 0.00 | 95 | 1015.7 |
| 20260905042033 | 23 | 0 | 0.0 | 0.0 | 0.00 | 0.00 | 0.00 | 95 | 1015.6 |
| 20260905041552 | 23 | 0 | 0.0 | 0.0 | 0.00 | 0.00 | 0.00 | 95 | 1015.6 |
| 20260905041032 | 23 | 0 | 0.0 | 0.0 | 0.00 | 0.00 | 0.00 | 95 | 1015.7 |
| 20260905040532 | 23 | 0 | 0.0 | 0.0 | 0.00 | 0.00 | 0.00 | 95 | 1015.8 |
| 20260905040050 | 23 | 0 | 0.0 | 0.0 | 0.00 | 0.00 | 0.00 | 95 | 1015.8 |
| 20260905035532 | 23 | 0 | 0.0 | 0.0 | 0.00 | 0.00 | 0.00 | 94 | 1015.7 |
| 20260905035032 | 23 | 0 | 0.0 | 0.0 | 0.00 | 0.00 | 0.00 | 94 | 1015.9 |
| 20260905034558 | 23 | 0 | 0.0 | 0.0 | 0.00 | 0.00 | 0.00 | 94 | 1015.7 |
| 20260905034034 | 23 | 0 | 0.0 | 0.0 | 0.00 | 0.00 | 0.00 | 94 | 1015.5 |
| 20260905033534 | 23 | 0 | 0.0 | 0.0 | 0.00 | 0.00 | 0.00 | 94 | 1015.5 |
| 20260905033104 | 23 | 0 | 0.0 | 0.0 | 0.00 | 0.00 | 0.00 | 94 | 1015.7 |
| 20260905032532 | 23 | 0 | 0.0 | 0.0 | 0.00 | 0.00 | 0.00 | 94 | 1015.8 |